MQT3AD EDDC-EDDM

Flight info

Callsign MQT3AD
Flight time 0h 45m
Altitude 30000
Route MAREM8E/04 MAREM DCT VESUB T106 TUSTO T108 LANDU LANDU2A
Aircraft B738/M-SDE2E3FGHIRWXY/LB1

Departure

Time 2026-05-01 11:38
Airport Dresden Airport (EDDC)

Arrival

Time 2026-05-01 12:23
Airport Munich Airport (EDDM)
Time Latitude Longitude Altitude Speed Heading
2026-05-01 11:06 51.12662 13.76486 752 ft 0 kts 220°
2026-05-01 11:29 51.12674 13.76503 751 ft 4 kts 233°
2026-05-01 11:29 51.12682 13.76581 749 ft 4 kts 291°
2026-05-01 11:30 51.12670 13.76619 749 ft 4 kts 305°
2026-05-01 11:30 51.12653 13.76653 750 ft 4 kts 312°
2026-05-01 11:30 51.12644 13.76670 749 ft 0 kts 311°
2026-05-01 11:33 51.12646 13.76665 749 ft 3 kts 310°
2026-05-01 11:33 51.12695 13.76576 748 ft 14 kts 311°
2026-05-01 11:34 51.12752 13.76476 751 ft 8 kts 311°
2026-05-01 11:34 51.12774 13.76397 749 ft 9 kts 265°
2026-05-01 11:34 51.12737 13.76321 750 ft 9 kts 220°
2026-05-01 11:34 51.12695 13.76263 749 ft 7 kts 220°
2026-05-01 11:35 51.12660 13.76216 750 ft 7 kts 221°
2026-05-01 11:35 51.12582 13.76105 755 ft 21 kts 221°
2026-05-01 11:35 51.12471 13.75947 762 ft 20 kts 218°
2026-05-01 11:35 51.12392 13.75855 763 ft 11 kts 220°
2026-05-01 11:36 51.12370 13.75762 764 ft 8 kts 284°
2026-05-01 11:36 51.12391 13.75683 764 ft 8 kts 294°
2026-05-01 11:36 51.12415 13.75607 765 ft 8 kts 301°
2026-05-01 11:36 51.12478 13.75512 768 ft 15 kts 357°
2026-05-01 11:37 51.12528 13.75554 767 ft 0 kts 38°
2026-05-01 11:37 51.12549 13.75582 766 ft 21 kts 40°
2026-05-01 11:37 51.12833 13.75970 752 ft 87 kts 40°
2026-05-01 11:37 51.13436 13.76802 733 ft 140 kts 40°
2026-05-01 11:38 51.14235 13.77916 955 ft 160 kts 40°
2026-05-01 11:38 51.15077 13.79114 1433 ft 166 kts 44°
2026-05-01 11:38 51.15944 13.80475 1845 ft 183 kts 43°
2026-05-01 11:38 51.16912 13.81907 2459 ft 195 kts 42°
2026-05-01 11:39 51.17938 13.83371 2933 ft 217 kts 41°
2026-05-01 11:39 51.19149 13.85009 3566 ft 234 kts 39°
2026-05-01 11:39 51.20239 13.87090 4079 ft 263 kts 66°
2026-05-01 11:39 51.20443 13.89951 5132 ft 259 kts 101°
2026-05-01 11:40 51.19823 13.92798 5630 ft 284 kts 121°
2026-05-01 11:40 51.18531 13.95053 6880 ft 277 kts 140°
2026-05-01 11:40 51.17001 13.97070 7496 ft 293 kts 140°
2026-05-01 11:40 51.15558 13.99212 8896 ft 277 kts 135°
2026-05-01 11:41 51.14188 14.01499 9602 ft 288 kts 132°
2026-05-01 11:41 51.12907 14.03812 10856 ft 282 kts 131°
2026-05-01 11:41 51.11583 14.06175 11688 ft 282 kts 132°
2026-05-01 11:41 51.10243 14.08492 12242 ft 301 kts 133°
2026-05-01 11:42 51.08693 14.11060 12365 ft 331 kts 134°
2026-05-01 11:42 51.06872 14.13284 13010 ft 340 kts 157°
2026-05-01 11:42 51.04550 14.13975 13809 ft 345 kts 184°
2026-05-01 11:42 51.02256 14.12909 14636 ft 349 kts 211°
2026-05-01 11:43 51.00483 14.10297 15454 ft 352 kts 237°
2026-05-01 11:43 50.99298 14.06875 16235 ft 358 kts 242°
2026-05-01 11:43 50.98083 14.03395 17000 ft 363 kts 235°
2026-05-01 11:44 50.94538 13.97603 18543 ft 371 kts 224°
2026-05-01 11:44 50.92655 13.94759 19283 ft 375 kts 224°
2026-05-01 11:44 50.90749 13.91888 19922 ft 382 kts 224°
2026-05-01 11:44 50.88796 13.88935 19998 ft 390 kts 224°
2026-05-01 11:45 50.86878 13.86020 20049 ft 386 kts 224°
2026-05-01 11:45 50.84945 13.83082 20729 ft 386 kts 224°
2026-05-01 11:45 50.82996 13.80128 21431 ft 390 kts 224°
2026-05-01 11:45 50.81029 13.77157 22097 ft 394 kts 224°
2026-05-01 11:46 50.79036 13.74152 22724 ft 398 kts 224°
2026-05-01 11:46 50.77022 13.71121 23318 ft 402 kts 224°
2026-05-01 11:46 50.74989 13.68063 23899 ft 406 kts 224°
2026-05-01 11:46 50.72899 13.65029 24457 ft 410 kts 218°
2026-05-01 11:47 50.70487 13.62606 25005 ft 414 kts 206°
2026-05-01 11:47 50.67795 13.60992 25577 ft 416 kts 198°
2026-05-01 11:47 50.65034 13.59602 26183 ft 416 kts 198°
2026-05-01 11:47 50.62277 13.58237 26812 ft 415 kts 198°
2026-05-01 11:48 50.59526 13.56879 27459 ft 413 kts 198°
2026-05-01 11:48 50.56788 13.55520 28120 ft 411 kts 198°
2026-05-01 11:48 50.54062 13.54159 28737 ft 409 kts 198°
2026-05-01 11:48 50.51346 13.52804 29317 ft 408 kts 198°
2026-05-01 11:49 50.48640 13.51459 29862 ft 408 kts 198°
2026-05-01 11:49 50.45909 13.50106 29997 ft 417 kts 198°
2026-05-01 11:49 50.40237 13.47301 30013 ft 437 kts 198°
2026-05-01 11:50 50.34317 13.44379 30023 ft 454 kts 198°
2026-05-01 11:50 50.28244 13.41389 30014 ft 468 kts 198°
2026-05-01 11:51 50.22132 13.38389 30010 ft 445 kts 198°
2026-05-01 11:51 50.16235 13.35502 30013 ft 445 kts 198°
2026-05-01 11:52 50.10339 13.32621 30010 ft 444 kts 198°
2026-05-01 11:52 50.04440 13.29748 30013 ft 444 kts 198°
2026-05-01 11:53 49.98549 13.26886 30024 ft 443 kts 198°
2026-05-01 11:53 49.92659 13.24031 30016 ft 444 kts 198°
2026-05-01 11:54 49.86805 13.21201 30024 ft 443 kts 197°
2026-05-01 11:54 49.80918 13.18362 30011 ft 443 kts 197°
2026-05-01 11:55 49.75040 13.15536 30012 ft 442 kts 197°
2026-05-01 11:55 49.69160 13.12715 30017 ft 442 kts 197°
2026-05-01 11:56 49.63276 13.09899 30011 ft 442 kts 197°
2026-05-01 11:56 49.57394 13.07092 30012 ft 442 kts 197°
2026-05-01 11:57 49.52508 13.04765 30018 ft 442 kts 197°
2026-05-01 11:57 49.45663 13.01515 30022 ft 443 kts 197°
2026-05-01 11:58 49.39895 12.98253 30016 ft 442 kts 205°
2026-05-01 11:59 49.31544 12.92173 30009 ft 442 kts 206°
2026-05-01 11:59 49.25981 12.88123 30017 ft 442 kts 205°
2026-05-01 12:00 49.17653 12.82090 30023 ft 442 kts 205°
2026-05-01 12:01 49.09309 12.76049 30023 ft 443 kts 205°
2026-05-01 12:01 49.03723 12.72023 30020 ft 446 kts 205°
2026-05-01 12:02 48.98056 12.67952 30029 ft 454 kts 205°
2026-05-01 12:02 48.92321 12.63845 30019 ft 457 kts 205°
2026-05-01 12:03 48.86574 12.59740 30012 ft 455 kts 205°
2026-05-01 12:03 48.80839 12.55670 30018 ft 455 kts 205°
2026-05-01 12:04 48.75075 12.51838 30015 ft 455 kts 200°
2026-05-01 12:04 48.72072 12.50214 29474 ft 459 kts 200°
2026-05-01 12:04 48.69085 12.48600 28984 ft 453 kts 200°
2026-05-01 12:04 48.66248 12.46632 28480 ft 446 kts 211°
2026-05-01 12:05 48.63768 12.43867 27853 ft 444 kts 223°
2026-05-01 12:05 48.60315 12.36275 26385 ft 436 kts 249°
2026-05-01 12:05 48.59223 12.31924 25639 ft 450 kts 242°
2026-05-01 12:06 48.58030 12.29301 25160 ft 449 kts 228°
2026-05-01 12:06 48.55637 12.26411 24457 ft 448 kts 209°
2026-05-01 12:06 48.52743 12.24697 23720 ft 447 kts 193°
2026-05-01 12:06 48.49650 12.24307 22989 ft 446 kts 182°
2026-05-01 12:07 48.46637 12.23349 22247 ft 444 kts 204°
2026-05-01 12:07 48.44131 12.20845 21653 ft 425 kts 225°
2026-05-01 12:07 48.42503 12.17269 21045 ft 408 kts 248°
2026-05-01 12:07 48.41952 12.13190 20452 ft 394 kts 271°
2026-05-01 12:08 48.42348 12.09178 19854 ft 382 kts 281°
2026-05-01 12:08 48.42847 12.05294 19138 ft 375 kts 281°
2026-05-01 12:08 48.43339 12.01460 18388 ft 369 kts 281°
2026-05-01 12:08 48.43817 11.97744 17647 ft 364 kts 281°
2026-05-01 12:09 48.44293 11.94030 16905 ft 358 kts 281°
2026-05-01 12:09 48.44763 11.90367 16156 ft 353 kts 281°
2026-05-01 12:09 48.45226 11.86753 15409 ft 348 kts 280°
2026-05-01 12:09 48.45306 11.83160 14670 ft 342 kts 265°
2026-05-01 12:10 48.45074 11.79617 13923 ft 337 kts 263°
2026-05-01 12:10 48.44501 11.72704 12436 ft 328 kts 263°
2026-05-01 12:10 48.44224 11.69322 11684 ft 323 kts 263°
2026-05-01 12:11 48.43715 11.62687 10194 ft 314 kts 263°
2026-05-01 12:11 48.43472 11.59483 9461 ft 310 kts 263°
2026-05-01 12:11 48.43229 11.56283 8721 ft 306 kts 263°
2026-05-01 12:12 48.42989 11.53122 7979 ft 302 kts 263°
2026-05-01 12:12 48.42751 11.49993 7237 ft 299 kts 263°
2026-05-01 12:12 48.42517 11.46922 6998 ft 290 kts 263°
2026-05-01 12:12 48.42290 11.43949 6740 ft 282 kts 263°
2026-05-01 12:13 48.42072 11.41084 6433 ft 269 kts 263°
2026-05-01 12:13 48.41783 11.38373 6127 ft 257 kts 251°
2026-05-01 12:13 48.40930 11.36092 5847 ft 247 kts 228°
2026-05-01 12:13 48.39579 11.34561 5568 ft 243 kts 204°
2026-05-01 12:14 48.37945 11.34096 5288 ft 240 kts 174°
2026-05-01 12:14 48.36417 11.34972 5038 ft 238 kts 141°
2026-05-01 12:14 48.35456 11.36969 5028 ft 243 kts 108°
2026-05-01 12:14 48.35285 11.39444 5068 ft 239 kts 91°
2026-05-01 12:15 48.34950 11.41903 5040 ft 238 kts 115°
2026-05-01 12:15 48.33983 11.43910 5064 ft 242 kts 139°
2026-05-01 12:15 48.32548 11.45146 5071 ft 237 kts 164°
2026-05-01 12:15 48.30908 11.45374 5047 ft 238 kts 188°
2026-05-01 12:16 48.29362 11.44556 5048 ft 238 kts 213°
2026-05-01 12:16 48.28186 11.42849 5067 ft 236 kts 238°
2026-05-01 12:16 48.27595 11.40560 5049 ft 237 kts 262°
2026-05-01 12:16 48.27697 11.38126 5070 ft 236 kts 287°
2026-05-01 12:17 48.28473 11.35968 5041 ft 238 kts 311°
2026-05-01 12:17 48.29756 11.34513 5048 ft 237 kts 335°
2026-05-01 12:17 48.31363 11.33974 5057 ft 236 kts
2026-05-01 12:17 48.32914 11.34840 5023 ft 241 kts 41°
2026-05-01 12:18 48.33731 11.36928 5055 ft 244 kts 79°
2026-05-01 12:18 48.33583 11.39394 5047 ft 239 kts 105°
2026-05-01 12:18 48.33512 11.41907 5052 ft 239 kts 81°
2026-05-01 12:18 48.33723 11.44407 5040 ft 242 kts 83°
2026-05-01 12:19 48.33917 11.46815 5046 ft 222 kts 83°
2026-05-01 12:19 48.34099 11.49092 5023 ft 221 kts 83°
2026-05-01 12:19 48.34283 11.51401 4773 ft 221 kts 83°
2026-05-01 12:19 48.34463 11.53666 4488 ft 215 kts 83°
2026-05-01 12:20 48.34640 11.55878 4211 ft 211 kts 83°
2026-05-01 12:20 48.34810 11.58032 3926 ft 204 kts 83°
2026-05-01 12:20 48.34975 11.60110 3655 ft 198 kts 83°
2026-05-01 12:20 48.35125 11.62171 3251 ft 200 kts 84°
2026-05-01 12:21 48.35270 11.64193 3049 ft 188 kts 84°
2026-05-01 12:21 48.35436 11.66119 2950 ft 184 kts 82°
2026-05-01 12:21 48.35588 11.68020 2560 ft 181 kts 84°
2026-05-01 12:21 48.35719 11.69819 2328 ft 166 kts 84°
2026-05-01 12:22 48.35847 11.71478 2197 ft 165 kts 83°
2026-05-01 12:22 48.35992 11.73141 2051 ft 156 kts 82°
2026-05-01 12:22 48.36109 11.74793 1740 ft 155 kts 84°
2026-05-01 12:22 48.36236 11.76362 1553 ft 150 kts 80°
2026-05-01 12:23 48.36349 11.77910 1478 ft 139 kts 84°
2026-05-01 12:23 48.36466 11.79048 1480 ft 83 kts 84°
2026-05-01 12:23 48.36516 11.79767 1485 ft 48 kts 89°
2026-05-01 12:23 48.36459 11.80167 1480 ft 27 kts 108°
2026-05-01 12:24 48.36385 11.80411 1481 ft 19 kts 111°
2026-05-01 12:24 48.36304 11.80491 1476 ft 15 kts 220°
2026-05-01 12:24 48.36280 11.80352 1480 ft 13 kts 264°
2026-05-01 12:24 48.36270 11.80213 1482 ft 14 kts 264°
2026-05-01 12:25 48.36259 11.80067 1485 ft 14 kts 262°
2026-05-01 12:25 48.36232 11.79701 1476 ft 21 kts 264°
2026-05-01 12:25 48.36214 11.79475 1477 ft 21 kts 263°
2026-05-01 12:26 48.36197 11.79261 1485 ft 20 kts 263°
2026-05-01 12:26 48.36166 11.78867 1485 ft 18 kts 263°
2026-05-01 12:26 48.36152 11.78671 1479 ft 20 kts 265°
2026-05-01 12:27 48.36135 11.78469 1473 ft 20 kts 262°
2026-05-01 12:27 48.36104 11.78050 1474 ft 20 kts 261°
2026-05-01 12:28 48.36070 11.77679 1482 ft 11 kts 237°
2026-05-01 12:28 48.36001 11.77670 1481 ft 10 kts 172°
2026-05-01 12:28 48.35871 11.77692 1479 ft 9 kts 176°
2026-05-01 12:29 48.35806 11.77704 1480 ft 11 kts 172°
2026-05-01 12:29 48.35707 11.77720 1473 ft 15 kts 174°
2026-05-01 12:29 48.35505 11.77757 1473 ft 14 kts 173°
2026-05-01 12:30 48.35325 11.77785 1479 ft 12 kts 172°
2026-05-01 12:30 48.35247 11.77799 1482 ft 9 kts 184°
2026-05-01 12:30 48.35224 11.77731 1479 ft 3 kts 263°
2026-05-01 12:31 48.35223 11.77709 1477 ft 3 kts 264°
2026-05-01 12:31 48.35222 11.77702 1477 ft 0 kts 264°